Regional Weather Roundup
Issued by NWS Bismarck, ND

Home | Current Version | Previous Version | Text Only | Print | Product List | Glossary On
Versions: 1 2 3 4 5 6 7 8 9 10 11 12 13 14 15 16 17 18 19 20 21 22 23 24 25 26 27 28 29 30 31 32 33 34 35 36 37 38 39 40 41 42 43 44 45 46 47 48 49 50
000
ASUS43 KBIS 020310
RWRBIS

NWR BROADCAST TEXT
NATIONAL WEATHER SERVICE BISMARCK ND
1000 PM CDT MON JUN 01 2015

NOTE: "FAIR" INDICATES FEW OR NO CLOUDS BELOW 12,000 FEET WITH NO
SIGNIFICANT WEATHER AND/OR OBSTRUCTIONS TO VISIBILITY.


CITY           SKY/WX    TMP DP  RH WIND       PRES   REMARKS
WILLISTON      PTCLDY    75  57  53 NE13      29.76R
MINOT          CLOUDY    66  56  70 NW10      29.78R
MINOT AFB      CLOUDY    68  68 100 E7        29.76S
BISMARCK       PTCLDY    70  61  73 SE6       29.79R
DICKINSON      MOCLDY    70  61  73 SE8       29.76S
GARRISON         N/A     66  57  72 E6        29.79F
HETTINGER ARPT MOCLDY    71  60  68 SE8       29.78F
JAMESTOWN      PTCLDY    71  58  63 S13       29.84R
BEACH          FAIR      73  52  46 CALM      29.78R HAZE
CARRINGTON     FAIR      72  64  78 S15       29.83R
CROSBY         FAIR      68  55  64 NE12      29.83R
HARVEY         FAIR      73  59  60 S9        29.80S
HAZEN          MOCLDY    72  54  53 NE23G30   29.81R
LINTON         FAIR      72  64  78 SE13      29.81R
MANDAN         FAIR      70  63  78 S8        29.81S
OAKES            N/A     66  57  72 SE12      29.88R
STANLEY        FAIR      66  63  88 E5        29.80S
WATFORD CITY   FAIR      68  55  64 E13       29.74S
$$

CITY           SKY/WX    TMP DP  RH WIND       PRES   REMARKS
GRAND FORKS    MOCLDY    68  46  45 SE16      29.88S
GRAND FORKS AF MOCLDY    69  48  46 S15       29.87S
DEVILS LAKE    CLOUDY    72  57  60 S14       29.80F
FARGO          CLEAR     69  46  43 SE17G25   29.91R
CANDO          HVY RAIN  61  59  94 N18G31    29.86R
CAVALIER       MOCLDY    70  48  46 S8G17     29.89R THUNDER
GRAFTON        FAIR      68  48  49 SE13      29.88R
LANGDON        MOCLDY    63  55  77 SE9G15    29.89R
ROLLA          MOCLDY    59  59 100 SE8       29.87R
WALHALLA       TSTM      64  59  82 MISG      29.89R
$$

CITY           SKY/WX    TMP DP  RH WIND       PRES   REMARKS
ABERDEEN       CLEAR     71  57  61 S13       29.88R
MOBRIDGE       CLEAR     73  63  70 SE15      29.78F
BUFFALO          N/A     72  61  68 E12       29.70F
RAPID CITY     CLOUDY    74  59  59 E18G24    29.84R
GLASGOW        MOCLDY    71  45  39 NE20      29.79R
SIDNEY         MOCLDY    77  52  41 N9        29.75R
WOLF POINT     MOCLDY    75  51  43 NE14      29.77S
GLENDIVE       CLOUDY    72  52  49 N9        29.77R
MILES CITY     CLOUDY    79  50  36 NE13      29.72S
BAKER          MOCLDY    71  59  65 CALM      29.77F
$$

CITY           SKY/WX    TMP DP  RH WIND       PRES   REMARKS
BILLINGS       LGT RAIN  60  52  74 NW22G31   29.87R
GREAT FALLS    CLOUDY    56  53  90 SW9       29.88S
REGINA         MOCLDY    66  45  45 N10       29.87R
ESTEVAN        PTCLDY    68  57  68 N12       29.83R
$$




USA.gov is the U.S. government's official web portal to all federal, state and local government web resources and services.